Regional Weather Roundup
Issued by NWS Charleston, SC

Current Version | Previous Version | Graphics & Text | Print | Product List | Glossary On
Versions: 1 2 3 4 5 6 7 8 9 10 11 12 13 14 15 16 17 18 19 20 21 22 23 24 25 26 27 28 29 30 31 32 33 34 35 36 37 38 39 40 41 42 43 44 45 46 47 48 49 50
000
ASUS42 KCHS 172211
RWRCHS

REGIONAL WEATHER ROUNDUP
NATIONAL WEATHER SERVICE CHARLESTON SC
600 PM EDT FRI APR 17 2015

NOTE: "FAIR" INDICATES FEW OR NO CLOUDS BELOW 12,000 FEET WITH NO
SIGNIFICANT WEATHER AND/OR OBSTRUCTIONS TO VISIBILITY.

NOT ALL STATIONS ARE QUALITY CONTROLLED BY THE NATIONAL
WEATHER SERVICE. USE DATA WITH CAUTION...ESPECIALLY
DEWPOINT OBSERVATIONS.

SCZ027-030-031-034>040-042>050-172300-
...SOUTHEAST SOUTH CAROLINA...

CITY           SKY/WX    TMP DP  RH WIND       PRES   REMARKS
N CHARLESTON   LGT RAIN  72  67  84 NW6       30.00F
WATERFRONT PRK   N/A     70 N/A N/A SW3         N/A
MOUNT PLEASANT MOCLDY    72  70  94 CALM      29.99F
PINOPOLIS      NOT AVBL
MONCKS CORNER  CLOUDY    72  66  83 CALM      30.00S
SUMMERVILLE    LGT RAIN  73  68  83 CALM      30.01F
BEAUFORT MCAS  CLOUDY    73  67  81 NE5       30.00F
BEAUFORT ARPT  FAIR      73  68  83 CALM      30.00F
HILTON HEAD IS PTSUNNY   72  68  88 CALM      30.01F
WALTERBORO     LGT RAIN  70  66  88 CALM      30.01F
ALLENDALE      CLOUDY    72  68  88 CALM      30.00F

...SOUTHERN MIDLANDS AND PEE DEE...

CITY           SKY/WX    TMP DP  RH WIND       PRES   REMARKS
GEORGETOWN     NOT AVBL
KINGSTREE      NOT AVBL
ORANGEBURG     LGT RAIN  70  64  81 E3        30.02F
BARNWELL       FAIR      70  66  88 N3        30.02F
AIKEN          LGT RAIN  66  63  88 CALM      30.06F
MANNING        LGT RAIN  70  54  56 N3        30.01S
COLUMBIA       CLOUDY    72  62  71 SE5       30.01F
SUMTER         DRIZZLE   72  65  77 W5        30.00F
FLORENCE       CLOUDY    73  64  73 CALM      30.00F
MYRTLE BEACH   MOSUNNY   73  64  73 E9        30.01S
N MYRTLE BEACH CLOUDY    73  66  78 NE6       29.99F

$$

GAZ063-065-086>088-099>101-113>116-118-119-134>141-150-172300-
...SOUTHEAST GEORGIA...

CITY           SKY/WX    TMP DP  RH WIND       PRES   REMARKS
SAVANNAH ARPT  CLOUDY    74  65  73 CALM      30.00F
HUNTER AAF     CLOUDY    74  68  82 CALM      29.98S
FORT STEWART   MOSUNNY   73  65  75 N1        29.98F
STATESBORO       N/A     69  69 100 CALM      30.02S
SYLVANIA       LGT RAIN  69  67  92 CALM      30.02F
CLAXTON        MOCLDY    70  66  88 NE3       30.01F

...CSRA...CENTRAL AND FAR SOUTHEAST GEORGIA...

CITY           SKY/WX    TMP DP  RH WIND       PRES   REMARKS
THOMSON        CLOUDY    67  67  99 CALM      30.08R
AUGUSTA-BUSH   LGT RAIN  68  64  87 NE3       30.02F
AUGUSTA-DANIEL LGT RAIN  68  64  87 CALM      30.03F
SWAINSBORO     DRIZZLE   68  68 100 CALM      30.03F
VIDALIA        CLOUDY    70  64  83 E5        30.02S
EASTMAN        CLOUDY    70  70 100 CALM      30.04S
HAZLEHURST     FAIR      74  67  79 NE5       30.00S
ALMA           LGT RAIN  72  66  81 NE3       30.00F
WAYCROSS       CLOUDY    78  69  73 E5        30.00S
JESUP          CLOUDY    75  68  78 CALM      30.01R
BAXLEY         CLOUDY    75  68  78 NE5       30.00F
BRUNSWICK      CLOUDY    75  64  69 SE6       30.01R
SAINT SIMONS   CLOUDY    69  65  86 SE6       30.01S

$$

SCZ027-028-034-036>038-045-046-048>050-GAZ119-141-172300-
...LAKE AND SUPPLEMENTAL COASTAL OBSERVATIONS...

STATION/POSITION TIME  TEMP    WIND        PRES    WAVE   SWELL
                       AIR SEA DIR/SP/G            HT/PER HT/PER/DIR
                 (UTC) (F)     (DEG/KT/KT) (MB)    (FT/S) (FT/S/D)
UPR LAKE MARION  NOT AVBL
WINYAH BAY       NOT AVBL
LAKE MURRAY      2100   70     170/  2/  2 1016.3F
ACE BASIN NERRS  NOT AVBL
FORT PULASKI     2106   72 71   90/  4/  4 1016.5
SAPELO ISLAND    NOT AVBL

$$

ANZ835-935-AMZ111-154-330-350-352-354-370-450-454-472-172300-
...C-MAN AND BUOY OBSERVATIONS...

STATION/POSITION TIME  TEMP    WIND        PRES    WAVE   SWELL
                       AIR SEA DIR/SP/G            HT/PER HT/PER/DIR
                 (UTC) (F)     (DEG/KT/KT) (MB)    (FT/S) (FT/S/D)
BUOY 41004       2150   71 75   10/ 10/ 12 1014.3S   5/ 9   5/ 9
BUOY 41008       2150   67 67   80/  4/  4 1016.0F   3/10   3/ 80/10
FOLLY BEACH CMAN 2200   68      30/  5/  5 1015.7F
CAPERS NEARSHORE NOT AVBL
FRIPP NEARSHORE  2100   71      CALM  /  2 1015.8F


STATION/POSITION TIME  TEMP    WIND        PRES    WAVE   SWELL
                       AIR SEA DIR/SP/G            HT/PER HT/PER/DIR
                 (UTC) (F)     (DEG/KT/KT) (MB)    (FT/S) (FT/S/D)
5E ST. MARYS GA  2121      71                N/A     3/ 8   2/ 80/11
FRYING PAN BUOY  2150   75 74   90/  8/ 10 1015.1F   5/ 9   5/100/ 9
BUOY 41025       2150   72 75  190/  4/  6 1016.0R   7/ 7   7/ 80/ 7
CAPE LOOKOUT NC  2200   69      90/  4/  4 1015.5F
BUOY 41002       2150   72 73  260/  6/  8 1015.2F   7/10   7/ 60/10
BUOY 41010       2120   77 79  300/  4/  6 1016.3F
ST AUGUSTINE FL  2200   68 69   10/  4/  4 1017.3S


$$



USA.gov is the U.S. government's official web portal to all federal, state and local government web resources and services.